Hyannis, MA

8:34 AM EDT on April 25, 2017 (GMT -0400)
Barnstable Municipal-Boardman-Polando Field

Weather History for KHYA - January, 2014

Change the Weather History Date:

Thursday, January 2, 2014

  Actual Average Record
Temperature  
Mean Temperature 28 °F -  
Max Temperature 32 °F 40 °F 55 °F (1985)
Min Temperature 24 °F 24 °F 3 °F (1999)
Degree Days  
Heating Degree Days 37    
Moisture  
Dew Point 25 °F    
Average Humidity 86    
Maximum Humidity 93    
Minimum Humidity 63    
Precipitation  
Precipitation 0.20 in - - ()
Sea Level Pressure  
Sea Level Pressure 30.00 in    
Wind  
Wind Speed 9 mph (NE)    
Max Wind Speed 25 mph    
Max Gust Speed 40 mph    
Visibility 2 miles    
Events Fog , Snow    
Averages and records for this station are not official NWS values.
T = Trace of Precipitation, MM = Missing Value Source: NWS Daily Summary

Daily Weather History Graph

Daily Weather History Graph

Search for Another Location

Airport or City:

Trip Planner

Search our weather history database for the weather conditions in past years. The results will help you decide how hot, cold, wet, or windy it might be!

Date:

Astronomy

Jan. 02, 2014 Rise Set
Actual Time 7:08 AM EST 4:22 PM EST
Civil Twilight 6:36 AM EST 4:53 PM EST
Nautical Twilight 6:02 AM EST 5:28 PM EST
Astronomical Twilight 5:28 AM EST 6:02 PM EST
Moon 7:45 AM EST (1/2) 6:17 PM EST (1/2)
Length of Visible Light 10h 16m
Length of Day
9h 14m
New Moon, 2% of the Moon is Illuminated
Jan 2
New Moon
Jan 7
First Quarter
Jan 15
Full
Jan 24
Last Quarter
Jan 30
New

Hourly Weather History & Observations

Time (EST) Temp. Windchill Dew Point Humidity Pressure Visibility Wind Dir Wind Speed Gust Speed Precip Events Conditions
12:56 AM 25.0 °F - 17.1 °F 72% 30.32 in 10.0 mi Calm Calm - N/A   Overcast
1:56 AM 27.0 °F 23.0 °F 16.0 °F 63% 30.31 in 10.0 mi NE 3.5 mph - N/A   Overcast
2:30 AM 26.6 °F 21.2 °F 17.6 °F 69% 30.31 in 2.5 mi East 4.6 mph - 0.00 in Snow Light Snow
2:44 AM 26.6 °F 22.6 °F 19.4 °F 74% 30.32 in 3.0 mi East 3.5 mph - 0.00 in Snow Light Snow
2:53 AM 26.6 °F 22.6 °F 19.4 °F 74% 30.32 in 2.0 mi East 3.5 mph - 0.00 in Snow Light Snow
2:56 AM 25.0 °F - 19.0 °F 78% 30.32 in 1.8 mi Calm Calm - 0.00 in Snow Light Snow
3:13 AM 24.8 °F 20.5 °F 19.4 °F 80% 30.30 in 2.0 mi NE 3.5 mph - 0.00 in Snow Light Snow
3:26 AM 24.8 °F 17.9 °F 21.2 °F 86% 30.28 in 4.0 mi NE 5.8 mph - 0.00 in Snow Light Snow
3:56 AM 25.0 °F 18.1 °F 21.0 °F 85% 30.29 in 10.0 mi NNE 5.8 mph - 0.00 in   Overcast
4:35 AM 26.6 °F 21.2 °F 23.0 °F 86% 30.27 in 6.0 mi NNE 4.6 mph - N/A   Overcast
4:56 AM 26.1 °F 19.4 °F 24.1 °F 92% 30.27 in 4.0 mi NE 5.8 mph - N/A   Overcast
5:24 AM 26.6 °F 17.5 °F 24.8 °F 93% 30.25 in 6.0 mi NE 9.2 mph - N/A   Overcast
5:56 AM 27.0 °F 18.0 °F 24.1 °F 89% 30.25 in 5.0 mi NE 9.2 mph - 0.00 in Snow Light Snow
6:56 AM 28.0 °F 19.3 °F 25.0 °F 88% 30.22 in 4.0 mi NE 9.2 mph - 0.00 in Snow Light Snow
7:56 AM 28.0 °F 20.0 °F 26.1 °F 92% 30.22 in 2.0 mi NE 8.1 mph - 0.01 in Snow Light Snow
8:56 AM 28.9 °F 21.1 °F 27.0 °F 92% 30.20 in 1.5 mi NE 8.1 mph - 0.00 in Snow Light Snow
9:56 AM 30.0 °F 20.5 °F 28.0 °F 92% 30.17 in 1.2 mi NE 11.5 mph - 0.01 in Snow Light Snow
10:38 AM 30.2 °F 21.3 °F 28.4 °F 93% 30.12 in 1.2 mi NE 10.4 mph - 0.01 in Snow Light Snow
10:56 AM 30.9 °F 22.2 °F 28.9 °F 92% 30.11 in 1.0 mi NE 10.4 mph - 0.01 in Snow Light Snow
11:17 AM 30.2 °F 21.9 °F 28.4 °F 93% 30.07 in 1.0 mi NE 9.2 mph - 0.01 in Snow Light Snow
11:29 AM 30.2 °F 21.9 °F 28.4 °F 93% 30.07 in 1.0 mi NE 9.2 mph - 0.01 in Snow Light Snow
11:56 AM 32.0 °F 23.0 °F 28.9 °F 88% 30.05 in 1.0 mi NE 11.5 mph - 0.02 in Snow Light Snow
12:24 PM 32.0 °F 24.2 °F 28.4 °F 87% 30.03 in 5.0 mi NE 9.2 mph - 0.00 in Snow Light Snow
12:56 PM 32.0 °F 25.6 °F 30.0 °F 92% 30.00 in 0.8 mi ENE 6.9 mph - 0.01 in Snow Light Snow
1:44 PM 32.0 °F 22.5 °F 28.4 °F 87% 29.95 in 0.5 mi ENE 12.7 mph 26.5 mph 0.01 in Snow Snow
1:54 PM 32.0 °F 22.5 °F 28.4 °F 87% 29.95 in 0.8 mi NE 12.7 mph 20.7 mph 0.01 in Snow Light Snow
1:56 PM 32.0 °F 21.2 °F 30.0 °F 92% 29.96 in 0.8 mi ENE 16.1 mph 25.3 mph 0.01 in Snow Light Snow
2:56 PM 30.9 °F 19.8 °F 28.0 °F 89% 29.94 in 0.8 mi NE 16.1 mph 24.2 mph 0.02 in Snow Light Snow
3:30 PM 30.2 °F 19.8 °F 26.6 °F 86% 29.91 in 0.5 mi ENE 13.8 mph 29.9 mph 0.01 in Snow Light Snow
3:46 PM 30.2 °F 18.5 °F 26.6 °F 86% 29.89 in 0.8 mi NE 17.3 mph 25.3 mph 0.01 in Snow Light Snow
3:49 PM 30.2 °F 19.8 °F 26.6 °F 86% 29.90 in 1.0 mi ENE 13.8 mph 25.3 mph 0.01 in Snow Light Snow
3:56 PM 30.0 °F 17.9 °F 27.0 °F 88% 29.89 in 1.2 mi NE 18.4 mph 27.6 mph 0.01 in Snow Light Snow
4:56 PM 28.9 °F 16.1 °F 26.1 °F 89% 29.89 in 1.0 mi NE 19.6 mph 28.8 mph 0.01 in Snow Light Snow
5:16 PM 28.4 °F 15.4 °F 26.6 °F 93% 29.86 in 1.0 mi NE 19.6 mph 27.6 mph 0.00 in Snow Light Snow
5:25 PM 28.4 °F 15.8 °F 26.6 °F 93% 29.86 in 1.2 mi NE 18.4 mph 29.9 mph 0.00 in Snow Light Snow
5:56 PM 28.9 °F 16.5 °F 26.1 °F 89% 29.86 in 1.5 mi NE 18.4 mph 29.9 mph 0.00 in Snow Light Snow
6:13 PM 28.4 °F 15.8 °F 24.8 °F 86% 29.84 in 1.5 mi NE 18.4 mph 32.2 mph 0.00 in Snow Light Snow
6:56 PM 28.9 °F 16.1 °F 25.0 °F 85% 29.87 in 1.2 mi ENE 19.6 mph 26.5 mph 0.00 in Snow Light Snow
7:09 PM 28.4 °F 15.8 °F 24.8 °F 86% 29.83 in 1.0 mi NE 18.4 mph 34.5 mph 0.01 in Snow Light Snow
7:56 PM 28.0 °F 14.9 °F 25.0 °F 88% 29.81 in 1.0 mi NE 19.6 mph 25.3 mph 0.02 in Snow Light Snow
8:12 PM 28.4 °F 16.2 °F 24.8 °F 86% 29.80 in 2.0 mi NE 17.3 mph 27.6 mph 0.00 in Snow Light Snow
8:19 PM 28.4 °F 15.8 °F 24.8 °F 86% 29.80 in 2.0 mi NE 18.4 mph 26.5 mph 0.00 in Snow Light Snow
8:56 PM 28.0 °F 15.3 °F 25.0 °F 88% 29.78 in 1.5 mi NE 18.4 mph 31.1 mph 0.00 in Snow Light Snow
9:06 PM 28.4 °F 14.7 °F 24.8 °F 86% 29.77 in 1.2 mi NE 21.9 mph 29.9 mph 0.00 in Snow Light Snow
9:36 PM 28.4 °F 14.7 °F 24.8 °F 86% 29.72 in 0.8 mi NE 21.9 mph 34.5 mph 0.01 in Snow Light Snow
9:48 PM 28.4 °F 13.8 °F 24.8 °F 86% 29.71 in 0.5 mi NE 25.3 mph 35.7 mph 0.02 in Fog , Snow Snow
9:56 PM 28.0 °F 13.3 °F 25.0 °F 88% 29.71 in 0.5 mi NE 25.3 mph 35.7 mph 0.02 in Fog , Snow Snow
10:52 PM 28.4 °F 15.4 °F 24.8 °F 86% 29.68 in 0.8 mi NE 19.6 mph 34.5 mph 0.02 in Snow Light Snow
10:56 PM 28.0 °F 15.3 °F 25.0 °F 88% 29.69 in 0.8 mi NE 18.4 mph 29.9 mph 0.02 in Snow Light Snow
11:25 PM 28.4 °F 14.7 °F 24.8 °F 86% 29.66 in 0.5 mi NE 21.9 mph 34.5 mph 0.02 in Fog , Snow Snow
11:56 PM 27.0 °F 12.2 °F 24.1 °F 89% 29.65 in 0.5 mi NE 24.2 mph 40.3 mph 0.03 in Fog , Snow Snow